[[{"header":{"parameterUnit":"m.s-1","parameterCategory":1,"la1":30.2991,"la2":30.254,"lo1":-89.0895,"lo2":-89.0444,"dy":0.0017,"dx":0.0017,"nx":28,"ny":28,"refTime":"2025-01-07T09:00:00:Z","depth":0,"parameterNumber":2,"parameterNumberName":"U-component_of_WINDS"},"data":[0,0,0,0,0,0,0,0,0,0,0,0,0,0,0,0,0,0,0,0,0,0,0,0,0,0,0,0,0,0,0,0,0,0,0,0,0,0,0,0,0,0,0,0,0,0,0,0,0,0,0,0,0,0,0,0,0,0,-1.0599,-1.06,0,-1.0659,-1.066,-1.066,-1.0584,-1.0581,-1.0578,-1.0575,-1.064,-1.0645,-1.0649,0,0,0,0,0,0,0,0,0,0,0,0,0,-1.042,-1.0424,-1.0599,-1.06,-1.0601,-1.0659,-1.066,-1.0661,-1.0584,-1.0581,-1.0577,-1.0574,-1.0639,-1.0644,-1.0649,0,0,0,0,0,0,0,0,0,0,0,0,0,-1.0491,-1.0425,-1.0599,-1.0569,-1.0567,-1.0659,-1.066,-1.0661,-1.0585,-1.0581,-1.0576,-1.0573,-1.0637,-1.0644,-1.065,-1.0774,0,0,-1.067,-1.0673,0,0,0,0,0,0,0,0,-1.0487,-1.0498,-1.0573,-1.0572,-1.0569,-1.0609,-1.062,-1.0699,-1.0586,-1.0578,-1.0575,-1.057,-1.0634,-1.064,-1.0661,-1.0777,-1.078,-1.067,-1.0674,-1.0677,-1.0679,0,0,0,0,0,0,0,-1.0482,-1.0495,-1.0623,-1.0574,-1.0572,-1.0554,-1.0559,-1.0635,-1.0629,-1.0579,-1.0573,-1.0581,-1.0632,-1.0655,-1.0662,-1.0781,-1.067,-1.0676,-1.068,-1.0683,-1.1002,-1.1006,0,0,0,0,0,0,-1.048,-1.0491,-1.0621,-1.0625,-1.0517,-1.056,-1.0566,-1.0601,-1.0628,-1.0628,-1.0585,-1.0577,-1.0646,-1.0654,-1.0664,-1.0812,-1.0677,-1.0683,-1.0687,-1.0998,-1.1003,-1.1008,0,0,0,0,0,0,-1.0477,-1.0493,-1.0619,-1.0556,-1.0571,-1.0568,-1.0607,-1.0604,-1.0627,-1.0632,-1.0631,-1.0609,-1.0643,-1.0655,-1.0747,-1.0813,-1.0686,-1.0692,-1.0992,-1.0999,-1.1006,-1.1108,0,0,0,0,0,0,-1.0472,-1.0492,-1.0539,-1.0558,-1.0575,-1.0701,-1.0611,-1.0609,-1.0638,-1.0629,-1.0655,-1.0655,-1.064,-1.0738,-1.0754,-1.0819,-1.0697,-1.0986,-1.0995,-1.1003,-1.1099,-1.1118,-1.1134,0,0,0,0,0,-1.0466,-1.0566,-1.0542,-1.0558,-1.0633,-1.0705,-1.0714,-1.0694,-1.0644,-1.0691,-1.0694,-1.0654,-1.0802,-1.0748,-1.0765,-1.0834,-1.0982,-1.0993,-1.1003,-1.1091,-1.1114,-1.1133,0,0,0,0,0,0,-1.0557,-1.0568,-1.0541,-1.0651,-1.0677,-1.0692,-1.0751,-1.0719,-1.0761,-1.0751,-1.0725,-1.0732,-1.083,-1.0841,-1.078,-1.0955,-1.0884,-1.0898,-1.0945,-1.0967,-1.0984,-1.0981,-1.0703,0,0,0,0,0,-1.0589,-1.0646,-1.0653,-1.0749,-1.0763,-1.0755,-1.0785,-1.0767,-1.0794,-1.0805,-1.0815,-1.0844,-1.0896,-1.0932,-1.098,-1.1099,-1.1104,-1.1154,-1.1172,-1.1186,-1.12,-1.1263,-1.1286,-1.1042,-1.1042,-1.1042,0,0,-1.0658,-1.0671,-1.0708,-1.0767,-1.0786,-1.0845,-1.0765,-1.0832,-1.0876,-1.0816,-1.0904,-1.0912,-1.0941,-1.1047,-1.1095,-1.1059,-1.1267,-1.1199,-1.1211,-1.1216,-1.1276,-1.1299,-1.132,-1.1049,-1.1048,-1.1047,0,0,-1.0813,-1.0828,-1.091,-1.0929,-1.0957,-1.0951,-1.097,-1.0989,-1.0992,-1.1079,-1.1035,-1.1087,-1.1179,-1.1202,-1.1225,-1.1387,-1.1352,-1.1403,-1.1495,-1.1557,-1.1577,-1.1594,-1.1652,-1.1673,-1.1416,-1.1416,-1.1416,0,-1.0895,-1.0983,-1.0956,-1.1026,-1.1053,-1.0999,-1.1081,-1.1102,-1.1145,-1.1166,-1.1124,-1.1237,-1.1253,-1.1364,-1.1403,-1.1424,-1.1446,-1.1402,-1.1576,-1.1592,-1.1608,-1.1664,-1.1686,-1.1422,-1.1422,-1.1421,-1.1421,0,-1.1082,-1.1144,-1.1206,-1.1248,-1.1282,-1.1358,-1.1343,-1.138,-1.1358,-1.1356,-1.1446,-1.1463,-1.1514,-1.1538,-1.1518,-1.1646,-1.1623,-1.1579,-1.1508,-1.1638,-1.169,-1.1711,-1.1431,-1.1429,-1.1427,-1.1426,0,0,-1.13,-1.1324,-1.1348,-1.1366,-1.1391,-1.1439,-1.1511,-1.156,-1.1593,-1.1624,-1.1685,-1.1763,-1.1722,-1.1749,-1.173,-1.1784,-1.1912,-1.1734,-1.1734,-1.1768,-1.2055,-1.2089,-1.2114,-1.1888,-1.1892,-1.1895,-1.2053,0,-1.1456,-1.1582,-1.1559,-1.1682,-1.1738,-1.1686,-1.175,-1.1773,-1.1772,-1.182,-1.1819,-1.1875,-1.1816,-1.1832,-1.1883,-1.1886,-1.197,-1.1874,-1.1946,-1.1949,-1.1942,-1.2141,-1.2178,-1.2327,-1.2073,-1.2076,-1.2079,0,-1.1657,-1.1694,-1.1822,-1.1838,-1.186,-1.1918,-1.196,-1.2006,-1.2031,-1.2027,-1.2056,-1.2026,-1.2099,-1.2024,-1.2125,-1.206,-1.2088,-1.2093,-1.2098,-1.2106,-1.2023,-1.2156,-1.2373,-1.2397,-1.211,-1.2108,-1.2105,0,-1.1804,-1.1886,-1.1973,-1.199,-1.201,-1.2052,-1.2062,-1.2083,-1.2113,-1.215,-1.2169,-1.2214,-1.224,-1.2275,-1.2259,-1.2206,-1.2363,-1.2287,-1.2363,-1.2363,-1.2401,-1.2399,-1.2627,-1.2415,-1.2415,-1.2414,-1.2414,0,-1.1983,-1.2064,-1.2039,-1.2093,-1.2182,-1.2154,-1.2243,-1.2248,-1.2266,-1.232,-1.2277,-1.2329,-1.2303,-1.2353,-1.2341,-1.2426,-1.2438,-1.2437,-1.2433,-1.2442,-1.2443,-1.2462,-1.2452,-1.242,-1.2419,-1.2418,-1.2417,0,-1.2164,-1.2151,-1.2243,-1.2253,-1.2258,-1.2323,-1.2333,-1.2383,-1.2378,-1.2447,-1.2461,-1.2454,-1.251,-1.2497,-1.2559,-1.255,-1.2658,-1.2641,-1.265,-1.2647,-1.2724,-1.2718,-1.2974,-1.3007,-1.2772,-1.2774,-1.2776,0,-1.228,-1.2341,-1.2358,-1.239,-1.2404,-1.2457,-1.2487,-1.2461,-1.2495,-1.2526,-1.2573,-1.2625,-1.2666,-1.2759,-1.2759,-1.2806,-1.279,-1.2877,-1.2797,-1.2804,-1.2793,-1.2791,-1.2797,-1.2894,-1.2896,-1.2899,-1.29,0,-1.2488,-1.2478,-1.2522,-1.2565,-1.2602,-1.2634,-1.2662,-1.2692,-1.2668,-1.2708,-1.2764,-1.2795,-1.2857,-1.291,-1.2953,-1.2964,-1.293,-1.2925,-1.2945,-1.2956,-1.296,-1.296,-1.2695,-1.292,-1.2918,-1.2916,-1.2915,-1.2915,-1.2641,-1.2693,-1.2712,-1.2763,-1.2781,-1.2808,-1.2856,-1.2856,-1.2902,-1.295,-1.2932,-1.2997,-1.3019,-1.3072,-1.3088,-1.3139,-1.3107,-1.3136,-1.3144,-1.3152,-1.3162,-1.295,-1.3147,-1.3146,-1.3145,-1.3145,-1.3144,0,-1.2848,-1.2857,-1.2904,-1.2944,-1.2985,-1.2945,-1.2974,-1.3011,-1.3068,-1.3091,-1.3131,-1.3196,-1.3246,-1.3249,-1.3296,-1.3336,-1.3321,-1.335,-1.3348,-1.3351,-1.3188,-1.3166,-1.3361,-1.3361,-1.3361,-1.3361,-1.3361,-1.3361,-1.296,-1.3045,-1.3037,-1.3131,-1.3139,-1.3202,-1.3222,-1.3246,-1.3264,-1.3338,-1.3379,-1.338,-1.3395,-1.3443,-1.3487,-1.3487,-1.3507,-1.3542,-1.3536,-1.3384,-1.3363,-1.3342,-1.3322,-1.3546,-1.3546,-1.3695,-1.3697,-1.3698]},{"header":{"parameterUnit":"m.s-1","parameterCategory":1,"la1":30.2991,"la2":30.254,"lo1":-89.0895,"lo2":-89.0444,"dy":0.0017,"dx":0.0017,"nx":28,"ny":28,"refTime":"2025-01-07T09:00:00:Z","depth":0,"parameterNumber":3,"parameterNumberName":"V-component_of_WINDS"},"data":[0,0,0,0,0,0,0,0,0,0,0,0,0,0,0,0,0,0,0,0,0,0,0,0,0,0,0,0,0,0,0,0,0,0,0,0,0,0,0,0,0,0,0,0,0,0,0,0,0,0,0,0,0,0,0,0,0,0,-6.0323,-6.0324,0,-6.041,-6.0411,-6.0412,-6.0318,-6.0314,-6.0311,-6.0307,-6.0392,-6.0398,-6.0403,0,0,0,0,0,0,0,0,0,0,0,0,0,-6.007,-6.0075,-6.0323,-6.0324,-6.0325,-6.041,-6.0411,-6.0412,-6.0318,-6.0314,-6.031,-6.0306,-6.0391,-6.0397,-6.0404,0,0,0,0,0,0,0,0,0,0,0,0,0,-6.0171,-6.0077,-6.0323,-6.0289,-6.0286,-6.041,-6.0411,-6.0413,-6.0319,-6.0314,-6.0308,-6.0303,-6.0388,-6.0396,-6.0405,-6.0565,0,0,-6.0431,-6.0434,0,0,0,0,0,0,0,0,-6.0165,-6.018,-6.0293,-6.0291,-6.0289,-6.0348,-6.0353,-6.0464,-6.0321,-6.0307,-6.0307,-6.0301,-6.0382,-6.039,-6.0418,-6.0569,-6.0572,-6.0431,-6.0436,-6.044,-6.0442,0,0,0,0,0,0,0,-6.0158,-6.0176,-6.0357,-6.0294,-6.0292,-6.0267,-6.0275,-6.0374,-6.0373,-6.0307,-6.0301,-6.0313,-6.0379,-6.041,-6.042,-6.0574,-6.0431,-6.0439,-6.0444,-6.0447,-6.0857,-6.0863,0,0,0,0,0,0,-6.0156,-6.017,-6.0354,-6.036,-6.0213,-6.0276,-6.0285,-6.0334,-6.0372,-6.0373,-6.0317,-6.0308,-6.0399,-6.041,-6.0422,-6.061,-6.044,-6.0448,-6.0453,-6.0851,-6.0858,-6.0865,0,0,0,0,0,0,-6.0151,-6.0173,-6.0351,-6.0263,-6.0284,-6.0286,-6.0342,-6.0339,-6.0369,-6.0379,-6.0378,-6.0349,-6.0395,-6.041,-6.053,-6.0612,-6.0452,-6.0459,-6.0845,-6.0854,-6.0862,-6.099,0,0,0,0,0,0,-6.0144,-6.0172,-6.0234,-6.0266,-6.0289,-6.0459,-6.0347,-6.0344,-6.0385,-6.0374,-6.0409,-6.041,-6.0392,-6.0518,-6.0538,-6.0621,-6.0466,-6.0837,-6.0849,-6.0859,-6.0978,-6.1002,-6.1022,0,0,0,0,0,-6.0135,-6.0266,-6.0238,-6.026,-6.0367,-6.0464,-6.0477,-6.0455,-6.0392,-6.0453,-6.0459,-6.0409,-6.06,-6.0531,-6.0553,-6.0639,-6.0832,-6.0845,-6.0858,-6.0968,-6.0997,-6.1021,0,0,0,0,0,0,-6.0243,-6.027,-6.0238,-6.0384,-6.0423,-6.0448,-6.0525,-6.0487,-6.0543,-6.053,-6.0499,-6.0508,-6.0635,-6.0649,-6.0571,-6.0795,-6.0705,-6.0723,-6.0781,-6.0809,-6.083,-6.0824,-6.0473,0,0,0,0,0,-6.0284,-6.0362,-6.038,-6.0507,-6.0528,-6.0524,-6.0565,-6.0545,-6.0583,-6.0598,-6.0613,-6.0651,-6.0719,-6.0765,-6.0828,-6.0979,-6.0985,-6.105,-6.1072,-6.1089,-6.1105,-6.1184,-6.1213,-6.0908,-6.0908,-6.0908,0,0,-6.0369,-6.0393,-6.0444,-6.0529,-6.0557,-6.0636,-6.0538,-6.0627,-6.0685,-6.0611,-6.0725,-6.0737,-6.0777,-6.0913,-6.0973,-6.0928,-6.1191,-6.1106,-6.1121,-6.1127,-6.1201,-6.123,-6.1255,-6.0917,-6.0915,-6.0914,0,0,-6.0565,-6.0592,-6.0699,-6.0729,-6.0772,-6.0768,-6.0794,-6.0825,-6.0831,-6.0945,-6.089,-6.0958,-6.1077,-6.1107,-6.1138,-6.1344,-6.1298,-6.1365,-6.1479,-6.1557,-6.158,-6.1602,-6.1673,-6.17,-6.1381,-6.1381,-6.1381,0,-6.0665,-6.0784,-6.0759,-6.0852,-6.089,-6.0828,-6.0935,-6.0964,-6.1026,-6.1053,-6.1002,-6.1149,-6.1171,-6.1312,-6.1362,-6.139,-6.1417,-6.1361,-6.1579,-6.16,-6.162,-6.1687,-6.1715,-6.1389,-6.1388,-6.1387,-6.1386,0,-6.0904,-6.0987,-6.1069,-6.1131,-6.1178,-6.1277,-6.1265,-6.1316,-6.1291,-6.1292,-6.1407,-6.1432,-6.1498,-6.153,-6.1507,-6.1668,-6.1638,-6.1584,-6.1493,-6.1657,-6.172,-6.1746,-6.14,-6.1397,-6.1395,-6.1393,0,0,-6.117,-6.1217,-6.1247,-6.1273,-6.1316,-6.1379,-6.1474,-6.1541,-6.1584,-6.1628,-6.1706,-6.1807,-6.1757,-6.1792,-6.1771,-6.1839,-6.1998,-6.1776,-6.1776,-6.1815,-6.2174,-6.2214,-6.2245,-6.1968,-6.1973,-6.1977,-6.217,0,-6.1366,-6.1533,-6.1513,-6.1673,-6.1748,-6.1689,-6.1772,-6.1806,-6.1809,-6.1872,-6.1874,-6.1946,-6.1875,-6.1896,-6.1961,-6.1965,-6.2069,-6.1951,-6.2039,-6.2042,-6.203,-6.2278,-6.2321,-6.2502,-6.2195,-6.2199,-6.2202,0,-6.1616,-6.167,-6.1838,-6.1867,-6.1898,-6.1973,-6.2031,-6.2093,-6.2129,-6.2126,-6.2165,-6.2131,-6.2225,-6.2133,-6.226,-6.218,-6.2214,-6.2222,-6.2228,-6.2234,-6.2132,-6.229,-6.256,-6.2586,-6.2241,-6.2238,-6.2235,0,-6.1792,-6.1906,-6.2021,-6.2045,-6.2083,-6.2137,-6.2154,-6.2186,-6.2226,-6.2276,-6.2302,-6.2362,-6.2395,-6.2441,-6.2424,-6.2359,-6.2554,-6.2461,-6.2552,-6.2553,-6.2595,-6.2593,-6.2873,-6.262,-6.2619,-6.2619,-6.2618,0,-6.2012,-6.2116,-6.21,-6.2171,-6.2285,-6.2259,-6.2373,-6.2383,-6.2411,-6.248,-6.2433,-6.2499,-6.2473,-6.2536,-6.2523,-6.2629,-6.2645,-6.2643,-6.2639,-6.2647,-6.2647,-6.2669,-6.2655,-6.2626,-6.2625,-6.2623,-6.2622,0,-6.2228,-6.2221,-6.2342,-6.2367,-6.2376,-6.2459,-6.248,-6.2545,-6.2543,-6.2632,-6.2651,-6.2649,-6.2721,-6.2709,-6.2789,-6.278,-6.2912,-6.2892,-6.2901,-6.2895,-6.2987,-6.2978,-6.329,-6.3329,-6.3052,-6.3055,-6.3057,0,-6.2368,-6.2447,-6.2481,-6.2525,-6.2547,-6.2618,-6.2659,-6.2636,-6.2681,-6.2727,-6.2786,-6.2855,-6.2908,-6.3026,-6.303,-6.3091,-6.3071,-6.3176,-6.3079,-6.3085,-6.3071,-6.3066,-6.3073,-6.3195,-6.3198,-6.3201,-6.3203,0,-6.2617,-6.261,-6.2672,-6.2733,-6.2783,-6.283,-6.2871,-6.2909,-6.289,-6.2942,-6.3016,-6.3057,-6.3139,-6.3207,-6.3263,-6.3278,-6.3237,-6.3233,-6.3257,-6.3267,-6.3267,-6.3267,-6.2951,-6.3226,-6.3224,-6.3222,-6.3221,-6.322,-6.2798,-6.2865,-6.2899,-6.2969,-6.2998,-6.3038,-6.31,-6.3106,-6.3168,-6.3233,-6.3216,-6.3299,-6.3331,-6.3402,-6.3424,-6.3488,-6.3449,-6.3484,-6.3493,-6.3501,-6.3512,-6.3258,-6.3498,-6.3497,-6.3497,-6.3496,-6.3496,0,-6.3044,-6.3062,-6.3127,-6.3187,-6.3242,-6.3199,-6.3242,-6.329,-6.3365,-6.3399,-6.3453,-6.3536,-6.3602,-6.3611,-6.3672,-6.3721,-6.3703,-6.3737,-6.3733,-6.3737,-6.3544,-6.3517,-6.3751,-6.3751,-6.3751,-6.375,-6.375,-6.375,-6.3178,-6.3288,-6.3284,-6.3407,-6.3425,-6.3507,-6.3535,-6.3571,-6.3598,-6.3694,-6.3748,-6.3754,-6.3778,-6.384,-6.3897,-6.3897,-6.3921,-6.3963,-6.3957,-6.3776,-6.3751,-6.3726,-6.37,-6.3969,-6.3969,-6.4143,-6.4145,-6.4146]}]]